Time,TemperatureF,DewpointF,PressureIn,WindDirection,WindDirectionDegrees,WindSpeedMPH,WindSpeedGustMPH,Humidity,HourlyPrecipIn,Conditions,Clouds,dailyrainin,SolarRadiationWatts/m^2,SoftwareType,DateUTC
2013-03-16 00:01:00,41.4,37.2,29.97,South,189,0.0,0.0,85,0.00,,,0.00,0,Wunderground v.1.15,2013-03-16 07:01:00,
2013-03-16 00:10:00,40.0,36.4,29.97,South,189,0.0,0.0,87,0.00,,,0.00,0,Wunderground v.1.15,2013-03-16 07:10:00,
2013-03-16 00:20:00,39.2,35.7,29.97,South,189,0.0,0.0,87,0.00,,,0.00,0,Wunderground v.1.15,2013-03-16 07:20:00,
2013-03-16 00:30:00,38.7,36.0,29.97,South,189,0.0,0.0,90,0.00,,,0.00,0,Wunderground v.1.15,2013-03-16 07:30:00,
2013-03-16 00:40:00,37.7,34.5,29.97,South,189,0.0,1.0,88,0.00,,,0.00,0,Wunderground v.1.15,2013-03-16 07:40:00,
2013-03-16 00:50:00,36.8,34.1,29.97,South,189,0.0,0.0,90,0.00,,,0.00,0,Wunderground v.1.15,2013-03-16 07:50:00,
2013-03-16 01:00:00,36.0,33.9,29.97,South,189,0.0,0.0,92,0.00,,,0.00,0,Wunderground v.1.15,2013-03-16 08:00:00,
2013-03-16 01:10:00,35.2,33.1,29.96,South,189,2.0,2.0,92,0.00,,,0.00,0,Wunderground v.1.15,2013-03-16 08:10:00,
2013-03-16 01:20:00,34.8,32.4,29.96,South,188,0.0,0.0,91,0.00,,,0.00,0,Wunderground v.1.15,2013-03-16 08:20:00,
2013-03-16 01:30:00,33.8,31.7,29.96,South,189,0.0,0.0,92,0.00,,,0.00,0,Wunderground v.1.15,2013-03-16 08:30:00,
2013-03-16 01:40:00,32.5,31.0,29.96,West,267,2.0,2.0,94,0.00,,,0.00,0,Wunderground v.1.15,2013-03-16 08:40:00,
2013-03-16 01:50:00,31.7,30.7,29.96,West,266,2.0,2.0,96,0.00,,,0.00,0,Wunderground v.1.15,2013-03-16 08:50:00,
2013-03-16 02:00:00,31.6,30.3,29.96,West,266,0.0,0.0,95,0.00,,,0.00,0,Wunderground v.1.15,2013-03-16 09:00:00,
2013-03-16 02:05:00,31.0,29.5,29.95,West,266,0.0,0.0,94,0.00,,,0.00,0,Wunderground v.1.15,2013-03-16 09:05:00,
2013-03-16 02:10:00,30.4,29.4,29.95,West,266,0.0,0.0,96,0.00,,,0.00,0,Wunderground v.1.15,2013-03-16 09:10:00,
2013-03-16 02:20:00,29.9,28.9,29.95,West,267,2.0,2.0,96,0.00,,,0.00,0,Wunderground v.1.15,2013-03-16 09:20:00,
2013-03-16 02:30:00,29.5,29.0,29.95,West,267,0.0,0.0,98,0.00,,,0.00,0,Wunderground v.1.15,2013-03-16 09:30:00,
2013-03-16 02:40:00,29.3,28.8,29.95,WSW,247,1.0,1.0,98,0.00,,,0.00,0,Wunderground v.1.15,2013-03-16 09:40:00,
2013-03-16 02:50:00,29.6,29.4,29.95,NW,325,1.0,1.0,99,0.00,,,0.00,0,Wunderground v.1.15,2013-03-16 09:50:00,
2013-03-16 03:00:00,29.5,29.0,29.95,WNW,300,4.0,4.0,98,0.00,,,0.00,0,Wunderground v.1.15,2013-03-16 10:00:00,
2013-03-16 03:10:00,29.5,29.0,29.94,WSW,240,2.0,2.0,98,0.00,,,0.00,0,Wunderground v.1.15,2013-03-16 10:10:00,
2013-03-16 03:20:00,29.1,28.4,29.93,WSW,246,2.0,2.0,97,0.00,,,0.00,0,Wunderground v.1.15,2013-03-16 10:20:00,
2013-03-16 03:30:00,29.0,28.3,29.94,WSW,242,0.0,0.0,97,0.00,,,0.00,0,Wunderground v.1.15,2013-03-16 10:30:00,
2013-03-16 03:40:00,29.1,28.9,29.94,SW,233,2.0,2.0,99,0.00,,,0.00,0,Wunderground v.1.15,2013-03-16 10:40:00,
2013-03-16 03:50:00,29.0,28.8,29.94,SW,227,2.0,2.0,99,0.00,,,0.00,0,Wunderground v.1.15,2013-03-16 10:50:00,
2013-03-16 04:00:00,29.9,29.7,29.93,SW,229,0.0,0.0,99,0.00,,,0.00,0,Wunderground v.1.15,2013-03-16 11:00:00,
2013-03-16 04:10:00,30.4,30.4,29.94,SSW,199,2.0,2.0,100,0.00,,,0.00,0,Wunderground v.1.15,2013-03-16 11:10:00,
2013-03-16 04:20:00,30.9,30.9,29.93,SW,229,3.0,3.0,100,0.00,,,0.00,0,Wunderground v.1.15,2013-03-16 11:20:00,
2013-03-16 04:30:00,29.8,29.3,29.92,ENE,71,1.0,1.0,98,0.00,,,0.00,0,Wunderground v.1.15,2013-03-16 11:30:00,
2013-03-16 04:40:00,29.6,29.6,29.92,ENE,71,0.0,0.0,100,0.00,,,0.00,0,Wunderground v.1.15,2013-03-16 11:40:00,
2013-03-16 04:50:00,28.9,28.7,29.92,ENE,71,0.0,0.0,99,0.00,,,0.00,0,Wunderground v.1.15,2013-03-16 11:50:00,
2013-03-16 05:00:00,28.6,28.6,29.93,SW,227,5.0,5.0,100,0.00,,,0.00,0,Wunderground v.1.15,2013-03-16 12:00:00,
2013-03-16 05:10:00,28.7,28.7,29.93,SW,226,0.0,0.0,100,0.00,,,0.00,0,Wunderground v.1.15,2013-03-16 12:10:00,
2013-03-16 05:20:00,28.3,28.3,29.93,SW,226,0.0,0.0,100,0.00,,,0.00,0,Wunderground v.1.15,2013-03-16 12:20:00,
2013-03-16 05:30:00,27.5,27.5,29.93,SSW,207,2.0,2.0,100,0.00,,,0.00,0,Wunderground v.1.15,2013-03-16 12:30:00,
2013-03-16 05:40:00,27.5,27.5,29.92,WSW,240,1.0,1.0,100,0.00,,,0.00,0,Wunderground v.1.15,2013-03-16 12:40:00,
2013-03-16 05:50:00,27.4,27.4,29.92,WSW,238,2.0,2.0,100,0.00,,,0.00,0,Wunderground v.1.15,2013-03-16 12:50:00,
2013-03-16 06:00:00,27.4,27.4,29.92,South,172,2.0,2.0,100,0.00,,,0.00,0,Wunderground v.1.15,2013-03-16 13:00:00,
2013-03-16 06:10:00,28.9,28.9,29.92,West,259,5.0,5.0,100,0.00,,,0.00,0,Wunderground v.1.15,2013-03-16 13:10:00,
2013-03-16 06:20:00,28.5,28.5,29.92,NE,49,2.0,2.0,100,0.00,,,0.00,0,Wunderground v.1.15,2013-03-16 13:20:00,
2013-03-16 06:30:00,30.9,30.7,29.91,SW,232,3.0,3.0,99,0.00,,,0.00,0,Wunderground v.1.15,2013-03-16 13:30:00,
2013-03-16 06:40:00,31.4,31.4,29.91,South,183,1.0,1.0,100,0.00,,,0.00,0,Wunderground v.1.15,2013-03-16 13:40:00,
2013-03-16 06:50:00,30.8,30.6,29.91,ESE,118,0.0,0.0,99,0.00,,,0.00,0,Wunderground v.1.15,2013-03-16 13:50:00,
2013-03-16 07:00:00,31.1,31.1,29.90,South,183,3.0,3.0,100,0.00,,,0.00,0,Wunderground v.1.15,2013-03-16 14:00:00,
2013-03-16 07:10:00,31.0,30.5,29.91,South,181,2.0,2.0,98,0.00,,,0.00,0,Wunderground v.1.15,2013-03-16 14:10:00,
2013-03-16 07:20:00,31.2,31.2,29.91,SSW,208,4.0,4.0,100,0.00,,,0.00,0,Wunderground v.1.15,2013-03-16 14:20:00,
2013-03-16 07:30:00,30.4,29.9,29.90,WSW,248,3.0,3.0,98,0.00,,,0.00,0,Wunderground v.1.15,2013-03-16 14:30:00,
2013-03-16 07:40:00,31.4,31.4,29.90,SW,230,2.0,2.0,100,0.00,,,0.00,0,Wunderground v.1.15,2013-03-16 14:40:00,
2013-03-16 07:50:00,30.5,30.0,29.89,SW,230,0.0,0.0,98,0.00,,,0.00,0,Wunderground v.1.15,2013-03-16 14:50:00,
2013-03-16 08:00:00,29.5,29.3,29.89,SW,230,0.0,0.0,99,0.00,,,0.00,0,Wunderground v.1.15,2013-03-16 15:00:00,
2013-03-16 08:10:00,28.9,28.9,29.89,SW,222,1.0,1.0,100,0.00,,,0.00,0,Wunderground v.1.15,2013-03-16 15:10:00,
2013-03-16 08:20:00,29.4,29.4,29.89,SW,223,2.0,2.0,100,0.00,,,0.00,0,Wunderground v.1.15,2013-03-16 15:20:00,
2013-03-16 08:30:00,31.1,31.1,29.89,SW,223,0.0,0.0,100,0.00,,,0.00,0,Wunderground v.1.15,2013-03-16 15:30:00,
2013-03-16 08:40:00,32.9,32.7,29.89,SW,223,0.0,0.0,99,0.00,,,0.00,0,Wunderground v.1.15,2013-03-16 15:40:00,
2013-03-16 08:50:00,35.4,34.9,29.89,SW,223,0.0,0.0,98,0.00,,,0.00,0,Wunderground v.1.15,2013-03-16 15:50:00,
2013-03-16 09:00:00,37.5,36.2,29.89,SW,222,0.0,0.0,95,0.00,,,0.00,0,Wunderground v.1.15,2013-03-16 16:00:00,
2013-03-16 09:10:00,38.9,37.0,29.89,WSW,245,0.0,0.0,93,0.00,,,0.00,0,Wunderground v.1.15,2013-03-16 16:10:00,
2013-03-16 09:20:00,40.7,37.7,29.89,SW,224,7.0,7.0,89,0.00,,,0.00,0,Wunderground v.1.15,2013-03-16 16:20:00,
2013-03-16 09:30:00,43.3,36.9,29.89,South,188,5.0,5.0,78,0.00,,,0.00,0,Wunderground v.1.15,2013-03-16 16:30:00,
2013-03-16 09:40:00,44.7,35.1,29.88,NNW,334,3.0,3.0,69,0.00,,,0.00,0,Wunderground v.1.15,2013-03-16 16:40:00,
2013-03-16 09:50:00,45.3,36.8,29.88,WSW,239,10.0,10.0,72,0.00,,,0.00,0,Wunderground v.1.15,2013-03-16 16:50:00,
2013-03-16 10:00:00,45.0,38.2,29.89,SW,221,7.0,7.0,77,0.00,,,0.00,0,Wunderground v.1.15,2013-03-16 17:00:00,
2013-03-16 10:10:00,45.2,38.1,29.89,SSW,192,5.0,5.0,76,0.00,,,0.00,0,Wunderground v.1.15,2013-03-16 17:10:00,
2013-03-16 10:20:00,46.2,35.8,29.89,SSW,193,10.0,10.0,67,0.00,,,0.00,0,Wunderground v.1.15,2013-03-16 17:20:00,
2013-03-16 10:30:00,46.3,35.2,29.89,SW,221,21.0,21.0,65,0.00,,,0.00,0,Wunderground v.1.15,2013-03-16 17:30:00,
2013-03-16 10:40:00,46.8,34.5,29.89,WSW,247,14.0,14.0,62,0.00,,,0.00,0,Wunderground v.1.15,2013-03-16 17:40:00,
2013-03-16 10:50:00,46.2,34.7,29.89,SW,229,13.0,13.0,64,0.00,,,0.00,0,Wunderground v.1.15,2013-03-16 17:50:00,
2013-03-16 11:00:00,46.4,34.1,29.88,SSW,209,6.0,6.0,62,0.00,,,0.00,0,Wunderground v.1.15,2013-03-16 18:00:00,
2013-03-16 11:10:00,47.1,35.1,29.87,SW,225,12.0,12.0,63,0.00,,,0.00,0,Wunderground v.1.15,2013-03-16 18:10:00,
2013-03-16 11:20:00,47.3,34.9,29.87,WSW,257,7.0,7.0,62,0.00,,,0.00,0,Wunderground v.1.15,2013-03-16 18:20:00,
2013-03-16 11:30:00,47.9,35.9,29.87,WSW,249,14.0,14.0,63,0.00,,,0.00,0,Wunderground v.1.15,2013-03-16 18:30:00,
2013-03-16 11:40:00,47.9,36.3,29.87,SW,230,17.0,17.0,64,0.00,,,0.00,0,Wunderground v.1.15,2013-03-16 18:40:00,
2013-03-16 11:50:00,48.6,35.3,29.86,SW,230,12.0,12.0,60,0.00,,,0.00,0,Wunderground v.1.15,2013-03-16 18:50:00,
2013-03-16 12:00:00,48.7,35.4,29.86,WSW,243,16.0,16.0,60,0.00,,,0.00,0,Wunderground v.1.15,2013-03-16 19:00:00,
2013-03-16 12:10:00,49.2,35.9,29.86,WSW,255,13.0,13.0,60,0.00,,,0.00,0,Wunderground v.1.15,2013-03-16 19:10:00,
2013-03-16 12:20:00,49.5,35.8,29.86,WSW,249,19.0,19.0,59,0.00,,,0.00,0,Wunderground v.1.15,2013-03-16 19:20:00,
2013-03-16 12:30:00,48.8,34.7,29.86,WSW,241,11.0,11.0,58,0.00,,,0.00,0,Wunderground v.1.15,2013-03-16 19:30:00,
2013-03-16 12:40:00,48.6,35.7,29.85,WSW,253,19.0,19.0,61,0.00,,,0.00,0,Wunderground v.1.15,2013-03-16 19:40:00,
2013-03-16 12:50:00,47.7,36.9,29.85,West,260,19.0,19.0,66,0.00,,,0.00,0,Wunderground v.1.15,2013-03-16 19:50:00,
2013-03-16 13:01:00,48.2,35.8,29.85,SW,230,11.0,11.0,62,0.00,,,0.00,0,Wunderground v.1.15,2013-03-16 20:01:00,
2013-03-16 13:10:00,49.8,33.3,29.84,WSW,245,9.0,29.0,53,0.00,,,0.00,0,Wunderground v.1.15,2013-03-16 20:10:00,
2013-03-16 13:20:00,48.5,34.4,29.84,WSW,248,18.0,18.0,58,0.00,,,0.00,0,Wunderground v.1.15,2013-03-16 20:20:00,
2013-03-16 13:35:00,45.5,35.5,29.84,West,261,17.0,17.0,68,0.00,,,0.00,0,Wunderground v.1.15,2013-03-16 20:35:00,
2013-03-16 13:40:00,45.0,35.1,29.84,WSW,253,9.0,17.0,68,0.00,,,0.00,0,Wunderground v.1.15,2013-03-16 20:40:00,
2013-03-16 13:50:00,45.1,36.6,29.83,WSW,252,15.0,15.0,72,0.00,,,0.00,0,Wunderground v.1.15,2013-03-16 20:50:00,
2013-03-16 14:00:00,44.0,35.2,29.83,WSW,242,20.0,20.0,71,0.00,,,0.00,0,Wunderground v.1.15,2013-03-16 21:00:00,
2013-03-16 14:10:00,43.2,34.4,29.83,WSW,250,14.0,14.0,71,0.00,,,0.00,0,Wunderground v.1.15,2013-03-16 21:10:00,
2013-03-16 14:20:00,42.3,34.9,29.83,WSW,254,25.0,25.0,75,0.00,,,0.00,0,Wunderground v.1.15,2013-03-16 21:20:00,
2013-03-16 14:30:00,41.9,35.9,29.83,WSW,249,13.0,13.0,79,0.00,,,0.00,0,Wunderground v.1.15,2013-03-16 21:30:00,
2013-03-16 14:40:00,42.0,36.6,29.83,WSW,256,11.0,11.0,81,0.00,,,0.00,0,Wunderground v.1.15,2013-03-16 21:40:00,
2013-03-16 14:50:00,42.4,36.3,29.83,WSW,237,15.0,15.0,79,0.00,,,0.00,0,Wunderground v.1.15,2013-03-16 21:50:00,
2013-03-16 15:00:00,43.2,36.1,29.82,West,261,17.0,17.0,76,0.00,,,0.00,0,Wunderground v.1.15,2013-03-16 22:00:00,
2013-03-16 15:10:00,44.0,36.6,29.82,WSW,245,15.0,15.0,75,0.00,,,0.00,0,Wunderground v.1.15,2013-03-16 22:10:00,
2013-03-16 15:20:00,44.1,35.6,29.81,WSW,240,24.0,24.0,72,0.00,,,0.00,0,Wunderground v.1.15,2013-03-16 22:20:00,
2013-03-16 15:30:00,44.7,35.9,29.81,SW,216,13.0,13.0,71,0.00,,,0.00,0,Wunderground v.1.15,2013-03-16 22:30:00,
2013-03-16 15:40:00,44.5,35.3,29.81,WSW,239,17.0,17.0,70,0.00,,,0.00,0,Wunderground v.1.15,2013-03-16 22:40:00,
2013-03-16 15:50:00,44.7,36.2,29.81,SW,233,9.0,9.0,72,0.00,,,0.00,0,Wunderground v.1.15,2013-03-16 22:50:00,
2013-03-16 16:05:00,45.3,36.4,29.80,WSW,258,14.0,14.0,71,0.00,,,0.00,0,Wunderground v.1.15,2013-03-16 23:05:00,
2013-03-16 16:10:00,45.1,36.6,29.80,WSW,240,4.0,14.0,72,0.00,,,0.00,0,Wunderground v.1.15,2013-03-16 23:10:00,
2013-03-16 16:20:00,44.7,35.9,29.80,WSW,237,28.0,28.0,71,0.00,,,0.00,0,Wunderground v.1.15,2013-03-16 23:20:00,
2013-03-16 16:30:00,44.7,36.2,29.80,SW,215,16.0,16.0,72,0.00,,,0.00,0,Wunderground v.1.15,2013-03-16 23:30:00,
2013-03-16 16:40:00,44.9,36.1,29.79,South,178,9.0,9.0,71,0.00,,,0.00,0,Wunderground v.1.15,2013-03-16 23:40:00,
2013-03-16 16:50:00,45.2,36.0,29.79,SSW,208,12.0,13.0,70,0.00,,,0.00,0,Wunderground v.1.15,2013-03-16 23:50:00,
2013-03-16 17:01:00,44.7,35.5,29.79,WSW,248,12.0,12.0,70,0.00,,,0.00,0,Wunderground v.1.15,2013-03-17 00:01:00,
2013-03-16 17:10:00,44.6,35.1,29.78,SW,218,22.0,22.0,69,0.00,,,0.00,0,Wunderground v.1.15,2013-03-17 00:10:00,
2013-03-16 17:20:00,44.2,35.4,29.78,SW,236,9.0,15.0,71,0.00,,,0.00,0,Wunderground v.1.15,2013-03-17 00:20:00,
2013-03-16 17:31:00,43.6,35.5,29.78,SW,230,15.0,17.0,73,0.00,,,0.00,0,Wunderground v.1.15,2013-03-17 00:31:00,
2013-03-16 17:40:00,42.7,35.7,29.79,WSW,253,12.0,21.0,76,0.00,,,0.00,0,Wunderground v.1.15,2013-03-17 00:40:00,
2013-03-16 17:50:00,42.5,35.5,29.79,WSW,249,12.0,12.0,76,0.00,,,0.00,0,Wunderground v.1.15,2013-03-17 00:50:00,
2013-03-16 18:00:00,41.6,35.6,29.78,SW,235,14.0,14.0,79,0.00,,,0.00,0,Wunderground v.1.15,2013-03-17 01:00:00,
2013-03-16 18:05:00,41.3,35.6,29.78,SW,234,12.0,14.0,80,0.00,,,0.00,0,Wunderground v.1.15,2013-03-17 01:05:00,
2013-03-16 18:10:00,41.0,35.6,29.79,WSW,238,17.0,17.0,81,0.00,,,0.00,0,Wunderground v.1.15,2013-03-17 01:10:00,
2013-03-16 18:20:00,40.6,35.8,29.77,WSW,241,11.0,11.0,83,0.00,,,0.00,0,Wunderground v.1.15,2013-03-17 01:20:00,
2013-03-16 18:30:00,41.0,34.3,29.77,WSW,238,12.0,12.0,77,0.00,,,0.00,0,Wunderground v.1.15,2013-03-17 01:30:00,
2013-03-16 18:40:00,41.0,34.3,29.77,SW,234,10.0,10.0,77,0.00,,,0.00,0,Wunderground v.1.15,2013-03-17 01:40:00,
2013-03-16 18:50:00,40.5,35.1,29.77,WSW,237,13.0,13.0,81,0.00,,,0.00,0,Wunderground v.1.15,2013-03-17 01:50:00,
2013-03-16 19:00:00,40.1,35.7,29.77,SW,235,23.0,23.0,84,0.00,,,0.00,0,Wunderground v.1.15,2013-03-17 02:00:00,
2013-03-16 19:10:00,39.9,35.5,29.76,SW,224,4.0,4.0,84,0.00,,,0.00,0,Wunderground v.1.15,2013-03-17 02:10:00,
2013-03-16 19:20:00,39.2,35.4,29.77,WSW,241,5.0,5.0,86,0.00,,,0.00,0,Wunderground v.1.15,2013-03-17 02:20:00,
2013-03-16 19:30:00,39.0,35.7,29.76,West,270,15.0,15.0,88,0.00,,,0.00,0,Wunderground v.1.15,2013-03-17 02:30:00,
2013-03-16 19:40:00,38.8,35.8,29.77,SSW,200,4.0,4.0,89,0.00,,,0.00,0,Wunderground v.1.15,2013-03-17 02:40:00,
2013-03-16 19:50:00,38.0,35.9,29.78,SW,230,5.0,5.0,92,0.00,,,0.00,0,Wunderground v.1.15,2013-03-17 02:50:00,
2013-03-16 20:00:00,37.3,35.5,29.78,SW,214,0.0,0.0,93,0.00,,,0.00,0,Wunderground v.1.15,2013-03-17 03:00:00,
2013-03-16 20:10:00,36.8,35.8,29.79,WSW,237,0.0,0.0,96,0.00,,,0.00,0,Wunderground v.1.15,2013-03-17 03:10:00,
2013-03-16 20:20:00,36.6,36.1,29.80,West,263,5.0,5.0,98,0.00,,,0.00,0,Wunderground v.1.15,2013-03-17 03:20:00,
2013-03-16 20:31:00,35.2,35.2,29.81,West,266,7.0,7.0,100,0.00,,,0.00,0,Wunderground v.1.15,2013-03-17 03:31:00,
2013-03-16 20:40:00,34.2,34.2,29.82,West,266,2.0,10.0,100,0.00,,,0.00,0,Wunderground v.1.15,2013-03-17 03:40:00,
2013-03-16 20:50:00,33.8,33.8,29.82,NW,325,4.0,6.0,100,0.00,,,0.00,0,Wunderground v.1.15,2013-03-17 03:50:00,
2013-03-16 21:00:00,33.8,33.8,29.82,NNW,333,2.0,2.0,100,0.00,,,0.00,0,Wunderground v.1.15,2013-03-17 04:00:00,
2013-03-16 21:05:00,33.9,33.9,29.82,WSW,251,5.0,5.0,100,0.00,,,0.00,0,Wunderground v.1.15,2013-03-17 04:05:00,
2013-03-16 21:10:00,33.8,33.8,29.82,WNW,301,2.0,2.0,100,0.00,,,0.00,0,Wunderground v.1.15,2013-03-17 04:10:00,
2013-03-16 21:20:00,33.6,33.6,29.82,West,270,2.0,2.0,100,0.00,,,0.00,0,Wunderground v.1.15,2013-03-17 04:20:00,
2013-03-16 21:25:00,33.5,33.5,29.82,SW,229,3.0,3.0,100,0.00,,,0.00,0,Wunderground v.1.15,2013-03-17 04:25:00,
2013-03-16 21:30:00,33.6,33.3,29.82,WSW,252,5.0,5.0,99,0.00,,,0.00,0,Wunderground v.1.15,2013-03-17 04:30:00,
2013-03-16 21:40:00,33.4,33.1,29.83,West,276,2.0,2.0,99,0.00,,,0.00,0,Wunderground v.1.15,2013-03-17 04:40:00,
2013-03-16 21:50:00,33.7,32.4,29.82,WSW,257,3.0,3.0,95,0.00,,,0.00,0,Wunderground v.1.15,2013-03-17 04:50:00,
2013-03-16 22:00:00,33.8,32.3,29.82,WSW,247,9.0,9.0,94,0.00,,,0.00,0,Wunderground v.1.15,2013-03-17 05:00:00,
2013-03-16 22:10:00,34.0,31.9,29.82,West,259,1.0,1.0,92,0.00,,,0.00,0,Wunderground v.1.15,2013-03-17 05:10:00,
2013-03-16 22:20:00,34.2,31.0,29.82,West,260,11.0,11.0,88,0.00,,,0.00,0,Wunderground v.1.15,2013-03-17 05:20:00,
2013-03-16 22:30:00,34.2,31.6,29.82,West,262,10.0,10.0,90,0.00,,,0.00,0,Wunderground v.1.15,2013-03-17 05:30:00,
2013-03-16 22:40:00,33.5,32.2,29.82,WNW,302,5.0,5.0,95,0.00,,,0.00,0,Wunderground v.1.15,2013-03-17 05:40:00,
2013-03-16 22:50:00,33.1,32.3,29.82,NW,323,6.0,6.0,97,0.00,,,0.00,0,Wunderground v.1.15,2013-03-17 05:50:00,
2013-03-16 23:00:00,32.9,32.1,29.83,WNW,283,1.0,1.0,97,0.00,,,0.00,0,Wunderground v.1.15,2013-03-17 06:00:00,
2013-03-16 23:10:00,33.0,32.0,29.82,WNW,283,3.0,3.0,96,0.00,,,0.00,0,Wunderground v.1.15,2013-03-17 06:10:00,
2013-03-16 23:20:00,33.8,31.2,29.82,West,266,6.0,6.0,90,0.00,,,0.00,0,Wunderground v.1.15,2013-03-17 06:20:00,
2013-03-16 23:30:00,33.9,31.3,29.82,West,275,5.0,5.0,90,0.00,,,0.00,0,Wunderground v.1.15,2013-03-17 06:30:00,
2013-03-16 23:40:00,33.5,31.4,29.82,NNW,328,6.0,6.0,92,0.00,,,0.00,0,Wunderground v.1.15,2013-03-17 06:40:00,
2013-03-16 23:50:00,33.1,31.6,29.83,West,276,5.0,5.0,94,0.00,,,0.00,0,Wunderground v.1.15,2013-03-17 06:50:00,